Weather History for KRUG - November, 2011

Change the Weather History Date:

Saturday, November 26, 2011

  Actual Average Record
Temperature  
Mean Temperature 26 °F -  
Max Temperature 32 °F 27 °F 59 °F (1962)
Min Temperature 17 °F 11 °F -17 °F (1985)
Degree Days  
Heating Degree Days 40    
Moisture  
Dew Point 25 °F    
Average Humidity 82    
Maximum Humidity 100    
Minimum Humidity 60    
Precipitation  
Precipitation 0.01 in - - ()
Sea Level Pressure  
Sea Level Pressure 30.13 in    
Wind  
Wind Speed 15 mph (NW)    
Max Wind Speed 29 mph    
Max Gust Speed 37 mph    
Visibility 9 miles    
Events Snow    
Averages and records for this station are not official NWS values.
T = Trace of Precipitation, MM = Missing Value Source: NWS Daily Summary

Daily Weather History Graph

Daily Weather History Graph

Search for Another Location

Airport or City:

Trip Planner

Search our weather history database for the weather conditions in past years. The results will help you decide how hot, cold, wet, or windy it might be!

Date:

Astronomy

Nov. 26, 2011 Rise Set
Actual Time 8:03 AM CST 4:50 PM CST
Civil Twilight 7:28 AM CST 5:26 PM CST
Nautical Twilight 6:49 AM CST 6:05 PM CST
Astronomical Twilight 6:11 AM CST 6:42 PM CST
Moon 9:41 AM CST (11/26) 6:19 PM CST (11/26)
Length of Visible Light 9h 58m
Length of Day
8h 47m
Waxing Crescent, 3% of the Moon is Illuminated
Nov 26
Waxing Crescent
Dec 2
First Quarter
Dec 10
Full
Dec 17
Last Quarter
Dec 24
New

Hourly Weather History & Observations

Time (CST) Temp. Windchill Dew Point Humidity Pressure Visibility Wind Dir Wind Speed Gust Speed Precip Events Conditions
12:15 AM 32.0 °F 28.7 °F 32.0 °F 100% 29.88 in 4.0 mi NNE 3.5 mph - 0.01 in Snow Light Snow
12:35 AM 32.0 °F 28.7 °F 32.0 °F 100% 29.89 in 5.0 mi WNW 3.5 mph - 0.01 in Snow Light Snow
12:55 AM 32.0 °F 28.7 °F 32.0 °F 100% 29.89 in 5.0 mi West 3.5 mph - 0.01 in   Mostly Cloudy
1:15 AM 32.0 °F - 32.0 °F 100% 29.89 in 4.0 mi Calm Calm - N/A   Mostly Cloudy
1:35 AM 32.0 °F 25.6 °F 32.0 °F 100% 29.90 in 4.0 mi West 6.9 mph - N/A   Overcast
1:55 AM 30.2 °F 23.4 °F 30.2 °F 100% 29.90 in 6.0 mi WNW 6.9 mph - N/A   Overcast
2:15 AM 30.2 °F 22.6 °F 30.2 °F 100% 29.91 in 8.0 mi WNW 8.1 mph - N/A   Overcast
2:35 AM 32.0 °F 23.6 °F 32.0 °F 100% 29.93 in 8.0 mi WNW 10.4 mph - N/A   Overcast
2:55 AM 32.0 °F 23.6 °F 32.0 °F 100% 29.94 in 8.0 mi WNW 10.4 mph - N/A   Overcast
3:15 AM 32.0 °F 22.1 °F 32.0 °F 100% 29.95 in 7.0 mi WNW 13.8 mph - N/A   Overcast
3:35 AM 32.0 °F 19.2 °F 32.0 °F 100% 29.96 in 7.0 mi WNW 23.0 mph 26.5 mph N/A   Overcast
3:55 AM 32.0 °F 18.9 °F 32.0 °F 100% 29.97 in 6.0 mi NW 24.2 mph 32.2 mph N/A   Overcast
4:35 AM 30.2 °F 17.4 °F 28.4 °F 93% 29.99 in 10.0 mi NW 20.7 mph - N/A   Mostly Cloudy
4:55 AM 30.2 °F 16.5 °F 28.4 °F 93% 30.01 in 10.0 mi NW 24.2 mph 29.9 mph N/A   Clear
5:15 AM 28.4 °F 14.7 °F 26.6 °F 93% 30.02 in 10.0 mi NW 21.9 mph 27.6 mph N/A   Partly Cloudy
5:35 AM 30.2 °F 16.2 °F 26.6 °F 86% 30.03 in 10.0 mi NW 25.3 mph 32.2 mph N/A   Mostly Cloudy
5:55 AM 32.0 °F 18.6 °F 26.6 °F 80% 30.04 in 10.0 mi NW 25.3 mph 35.7 mph N/A   Overcast
6:15 AM 32.0 °F 18.4 °F 26.6 °F 80% 30.05 in 10.0 mi NNW 26.5 mph 36.8 mph N/A   Overcast
6:35 AM 32.0 °F 19.2 °F 26.6 °F 80% 30.06 in 10.0 mi NW 23.0 mph 31.1 mph N/A   Overcast
6:55 AM 32.0 °F 19.8 °F 26.6 °F 80% 30.06 in 10.0 mi NW 20.7 mph - N/A   Mostly Cloudy
7:15 AM 32.0 °F 21.2 °F 28.4 °F 87% 30.07 in 10.0 mi NW 16.1 mph - N/A   Mostly Cloudy
7:35 AM 32.0 °F 21.6 °F 28.4 °F 87% 30.08 in 10.0 mi NW 15.0 mph - N/A   Overcast
7:55 AM 32.0 °F 19.5 °F 26.6 °F 80% 30.08 in 10.0 mi NW 21.9 mph 27.6 mph N/A   Overcast
8:15 AM 30.2 °F 16.2 °F 26.6 °F 86% 30.09 in 10.0 mi WNW 25.3 mph 29.9 mph N/A   Overcast
8:35 AM 30.2 °F 17.4 °F 26.6 °F 86% 30.11 in 10.0 mi NW 20.7 mph 26.5 mph N/A   Overcast
8:55 AM 30.2 °F 17.4 °F 26.6 °F 86% 30.12 in 10.0 mi WNW 20.7 mph 27.6 mph N/A   Overcast
9:15 AM 30.2 °F 16.2 °F 26.6 °F 86% 30.13 in 10.0 mi WNW 25.3 mph 29.9 mph N/A   Overcast
9:35 AM 30.2 °F 16.8 °F 26.6 °F 86% 30.14 in 10.0 mi NW 23.0 mph 32.2 mph N/A   Overcast
9:55 AM 30.2 °F 16.5 °F 26.6 °F 86% 30.15 in 10.0 mi WNW 24.2 mph 28.8 mph N/A   Mostly Cloudy
10:15 AM 32.0 °F 18.9 °F 26.6 °F 80% 30.16 in 10.0 mi WNW 24.2 mph 35.7 mph N/A   Overcast
10:35 AM 32.0 °F 19.2 °F 26.6 °F 80% 30.17 in 10.0 mi NW 23.0 mph 31.1 mph N/A   Overcast
10:55 AM 30.2 °F 16.2 °F 24.8 °F 80% 30.17 in 10.0 mi WNW 25.3 mph 32.2 mph N/A   Overcast
11:15 AM 30.2 °F 15.9 °F 26.6 °F 86% 30.18 in 10.0 mi NW 26.5 mph 31.1 mph N/A   Overcast
11:35 AM 30.2 °F 16.5 °F 24.8 °F 80% 30.18 in 10.0 mi WNW 24.2 mph 28.8 mph N/A   Overcast
11:55 AM 30.2 °F 16.5 °F 24.8 °F 80% 30.19 in 10.0 mi WNW 24.2 mph 31.1 mph N/A   Overcast
12:15 PM 30.2 °F 17.1 °F 24.8 °F 80% 30.18 in 10.0 mi NW 21.9 mph 31.1 mph N/A   Overcast
12:35 PM 30.2 °F 17.4 °F 24.8 °F 80% 30.19 in 10.0 mi NW 20.7 mph 33.4 mph N/A   Overcast
12:55 PM 32.0 °F 18.9 °F 24.8 °F 75% 30.20 in 10.0 mi NW 24.2 mph 29.9 mph N/A   Overcast
1:15 PM 32.0 °F 19.2 °F 24.8 °F 75% 30.20 in 10.0 mi NW 23.0 mph 34.5 mph N/A   Overcast
1:35 PM 32.0 °F 18.9 °F 23.0 °F 69% 30.22 in 10.0 mi NW 24.2 mph 31.1 mph N/A   Overcast
1:55 PM 32.0 °F 18.9 °F 23.0 °F 69% 30.23 in 10.0 mi NW 24.2 mph 31.1 mph N/A   Overcast
2:15 PM 30.2 °F 15.9 °F 23.0 °F 75% 30.22 in 10.0 mi NW 26.5 mph 32.2 mph N/A   Mostly Cloudy
2:35 PM 32.0 °F 17.9 °F 21.2 °F 64% 30.23 in 10.0 mi NW 28.8 mph 36.8 mph N/A   Partly Cloudy
2:55 PM 32.0 °F 18.9 °F 21.2 °F 64% 30.23 in 10.0 mi NW 24.2 mph - N/A   Clear
3:15 PM 32.0 °F 19.8 °F 19.4 °F 60% 30.24 in 10.0 mi NNW 20.7 mph 29.9 mph N/A   Clear
3:35 PM 32.0 °F 19.8 °F 19.4 °F 60% 30.25 in 10.0 mi NW 20.7 mph 27.6 mph N/A   Clear
3:55 PM 30.2 °F 17.4 °F 19.4 °F 64% 30.26 in 10.0 mi NW 20.7 mph - N/A   Clear
4:15 PM 28.4 °F 16.2 °F 19.4 °F 69% 30.28 in 10.0 mi NW 17.3 mph - N/A   Clear
4:35 PM 28.4 °F 16.6 °F 19.4 °F 69% 30.28 in 10.0 mi NW 16.1 mph - N/A   Clear
4:55 PM 28.4 °F 16.2 °F 19.4 °F 69% 30.29 in 10.0 mi NW 17.3 mph - N/A   Clear
5:35 PM 26.6 °F 14.7 °F 17.6 °F 69% 30.32 in 10.0 mi NW 15.0 mph - N/A   Clear
6:15 PM 24.8 °F 11.1 °F 15.8 °F 69% 30.31 in 10.0 mi NW 18.4 mph - N/A   Clear
6:35 PM 24.8 °F 12.9 °F 15.8 °F 69% 30.32 in 10.0 mi NW 13.8 mph - N/A   Clear
6:55 PM 24.8 °F 11.5 °F 14.0 °F 64% 30.32 in 10.0 mi NW 17.3 mph - N/A   Clear
7:15 PM 23.0 °F 10.1 °F 14.0 °F 68% 30.33 in 10.0 mi NW 15.0 mph - N/A   Clear
7:35 PM 23.0 °F 10.6 °F 15.8 °F 74% 30.34 in 10.0 mi NW 13.8 mph - N/A   Clear
8:15 PM 19.4 °F 7.2 °F 14.0 °F 80% 30.34 in 10.0 mi NW 11.5 mph - N/A   Clear
8:35 PM 17.6 °F 6.4 °F 14.0 °F 86% 30.34 in 10.0 mi WNW 9.2 mph - N/A   Clear
8:55 PM 19.4 °F 10.4 °F 14.0 °F 80% 30.34 in 10.0 mi WNW 6.9 mph - N/A   Clear
9:15 PM 19.4 °F 8.6 °F 14.0 °F 80% 30.35 in 10.0 mi WNW 9.2 mph - N/A   Clear
10:15 PM 17.6 °F 5.7 °F 14.0 °F 86% 30.33 in 10.0 mi WNW 10.4 mph - N/A   Clear
10:35 PM 15.8 °F 4.2 °F 14.0 °F 93% 30.34 in 10.0 mi West 9.2 mph - N/A   Clear
10:55 PM 15.8 °F 3.4 °F 14.0 °F 93% 30.33 in 10.0 mi WNW 10.4 mph - N/A   Clear
11:15 PM 15.8 °F 3.4 °F 12.2 °F 86% 30.33 in 10.0 mi West 10.4 mph - N/A   Clear
11:35 PM 15.8 °F 3.4 °F 12.2 °F 86% 30.33 in 10.0 mi WNW 10.4 mph - N/A   Clear
11:55 PM 14.0 °F 2.0 °F 12.2 °F 93% 30.33 in 10.0 mi WNW 9.2 mph - N/A   Clear